{"data":{"norad_id":48976,"epoch":"2026-05-25T05:30:07.643232Z","epoch_age_seconds":69326,"freshness":"FRESH","line1":"1 48976U 21060K   26145.22925513  .00000070  00000+0  14986-3 0  9997","line2":"2 48976  87.9110 233.3409 0001934 100.8445 259.2903 13.16592643236578","mean_motion":13.16592643,"eccentricity":0.0001934,"inclination_deg":87.911,"raan_deg":233.3409,"arg_perigee_deg":100.8445,"mean_anomaly_deg":259.2903,"bstar":0.00014986,"rev_number":23657,"period_min":109.37323762639,"perigee_km":1196.2976795434,"apogee_km":1199.2280376087,"semimajor_km":7575.8998585761,"source":"CELESTRAK","updated_at":"2026-05-25T13:38:22.451442Z"}}